Simferopol, Ukraine

9:34 AM EEST on September 25, 2017 (GMT +0300)
Simferopol

Weather History for UKFF - February, 2013

Change the Weather History Date:

Monday, February 18, 2013

  Actual Average Record
Temperature  
Mean Temperature 32 °F -  
Max Temperature 37 °F - - ()
Min Temperature 24 °F - - ()
Degree Days  
Heating Degree Days 34    
Moisture  
Dew Point 30 °F    
Average Humidity 93    
Maximum Humidity 100    
Minimum Humidity 71    
Precipitation  
Precipitation 0.00 in 0.05 in - ()
Sea Level Pressure  
Sea Level Pressure 30.06 in    
Wind  
Wind Speed 7 mph ()    
Max Wind Speed 11 mph    
Max Gust Speed -    
Visibility 2.9 miles    
Events Rain , Snow    
T = Trace of Precipitation, MM = Missing Value Source: Averaged Metar Reports

Daily Weather History Graph

Daily Weather History Graph

Search for Another Location

Airport or City:

Trip Planner

Search our weather history database for the weather conditions in past years. The results will help you decide how hot, cold, wet, or windy it might be!

Date:

Astronomy

Feb. 18, 2013 Rise Set
Actual Time 6:39 AM EET 5:16 PM EET
Civil Twilight 6:09 AM EET 5:45 PM EET
Nautical Twilight 5:35 AM EET 6:20 PM EET
Astronomical Twilight 5:01 AM EET 6:53 PM EET
Moon 10:40 AM EET (2/18) 1:06 AM EET (2/18)
Length of Visible Light 11h 36m
Length of Day
10h 36m
First Quarter, 55% of the Moon is Illuminated
Feb 18
First Quarter
Feb 25
Full
Mar 4
Last Quarter
Mar 11
New
Mar 19
First Quarter

Hourly Weather History & Observations

Time (EET) Temp. Windchill Dew Point Humidity Pressure Visibility Wind Dir Wind Speed Gust Speed Precip Events Conditions
12:00 AM 32.0 °F 25.7 °F 32.0 °F 100% 30.06 in 1.3 mi East 6.7 mph - N/A   Overcast
12:30 AM 32.0 °F - 32.0 °F 100% 30.06 in 1.5 mi ENE 2.2 mph - N/A   Overcast
1:00 AM 32.0 °F 27.6 °F 32.0 °F 100% 30.06 in 1.5 mi ENE 4.5 mph - N/A   Overcast
1:30 AM 32.0 °F 27.6 °F 32.0 °F 100% 30.06 in 1.7 mi ENE 4.5 mph - N/A   Mist
2:00 AM 32 °F - 31 °F 97% 30.11 in 2 mi ENE 4.5 mph - -   Mist
2:00 AM 32.0 °F 27.6 °F 32.0 °F 100% 30.06 in 1.6 mi ENE 4.5 mph - N/A   Overcast
2:30 AM 32.0 °F 27.6 °F 32.0 °F 100% 30.06 in 1.6 mi ENE 4.5 mph - N/A   Overcast
3:00 AM 32.0 °F 25.7 °F 32.0 °F 100% 30.04 in 1.4 mi NE 6.7 mph - N/A   Mist
3:30 AM 32.0 °F 25.7 °F 30.2 °F 93% 30.04 in 1.6 mi ENE 6.7 mph - N/A   Overcast
3:54 AM 32.0 °F 25.7 °F 30.2 °F 93% 30.04 in - ENE 6.7 mph - N/A   Overcast
4:00 AM 32.0 °F 25.7 °F 30.2 °F 93% 30.04 in - ENE 6.7 mph - N/A   Mist
4:30 AM 32.0 °F 25.7 °F 30.2 °F 93% 30.04 in - ENE 6.7 mph - N/A   Overcast
5:00 AM 32 °F - 29 °F 86% 30.09 in 3 mi ENE 8.9 mph - - Snow Light Snow
5:00 AM 32.0 °F 24.3 °F 30.2 °F 93% 30.04 in - ENE 8.9 mph - N/A Snow Light Snow
5:30 AM 32.0 °F 25.7 °F 30.2 °F 93% 30.04 in - ENE 6.7 mph - N/A   Mist
6:00 AM 32.0 °F 25.7 °F 30.2 °F 93% 30.04 in - ENE 6.7 mph - N/A   Overcast
6:02 AM 32.0 °F 25.7 °F 30.2 °F 93% 30.04 in 1.8 mi ENE 6.7 mph - N/A   Overcast
6:30 AM 30.2 °F 22.1 °F 30.2 °F 100% 30.04 in 1.7 mi NE 8.9 mph - N/A   Overcast
7:00 AM 30.2 °F 22.1 °F 30.2 °F 100% 30.04 in 1.5 mi NE 8.9 mph - N/A   Overcast
7:30 AM 30.2 °F 22.1 °F 30.2 °F 100% 30.06 in 1.7 mi ENE 8.9 mph - N/A   Overcast
8:00 AM 31 °F - 30 °F 96% 30.11 in 2 mi ENE 8.9 mph - -   Mist
8:00 AM 32.0 °F 24.3 °F 30.2 °F 93% 30.06 in - ENE 8.9 mph - N/A   Overcast
8:07 AM 32.0 °F 24.3 °F 30.2 °F 93% 30.06 in 1.8 mi ENE 8.9 mph - N/A   Overcast
8:30 AM 32.0 °F 23.2 °F 32.0 °F 100% 30.06 in 1.4 mi NE 11.2 mph - N/A   Overcast
9:00 AM 32.0 °F 23.2 °F 32.0 °F 100% 30.06 in 1.7 mi ENE 11.2 mph - N/A   Overcast
9:30 AM 32.0 °F 23.2 °F 32.0 °F 100% 30.06 in 1.6 mi NE 11.2 mph - N/A   Overcast
10:00 AM 32.0 °F 23.2 °F 32.0 °F 100% 30.06 in 1.4 mi ENE 11.2 mph - N/A   Overcast
10:30 AM 32.0 °F 24.3 °F 32.0 °F 100% 30.06 in 1.7 mi ENE 8.9 mph - N/A Snow Light Snow
10:47 AM 32.0 °F 23.2 °F 32.0 °F 100% 30.06 in - NE 11.2 mph - N/A Snow Light Snow
11:00 AM 33 °F - 32 °F 92% 30.10 in 2 mi ENE 11.2 mph - - Snow Light Snow
11:00 AM 32.0 °F 23.2 °F 32.0 °F 100% 30.06 in - ENE 11.2 mph - N/A Snow Light Snow
11:30 AM 33.8 °F 25.4 °F 32.0 °F 93% 30.06 in - ENE 11.2 mph - N/A   Overcast
12:00 PM 35.6 °F 28.7 °F 33.8 °F 93% 30.06 in 6.2 mi NE 8.9 mph - N/A   Overcast
12:30 PM 35.6 °F 27.7 °F 32.0 °F 87% 30.04 in 6.2 mi NE 11.2 mph - N/A   Overcast
1:00 PM 37.4 °F 30.9 °F 32.0 °F 81% 30.04 in 6.2 mi NE 8.9 mph - N/A   Overcast
1:30 PM 35.6 °F 28.7 °F 30.2 °F 81% 30.04 in 6.2 mi NE 8.9 mph - N/A   Overcast
2:00 PM 36 °F - 30 °F 71% 30.08 in 6 mi NE 8.9 mph - -   Partly Cloudy
2:00 PM 35.6 °F 28.7 °F 30.2 °F 81% 30.04 in 6.2 mi NE 8.9 mph - N/A   Overcast
2:30 PM 35.6 °F 27.7 °F 30.2 °F 81% 30.04 in 6.2 mi NE 11.2 mph - N/A   Overcast
3:00 PM 35.6 °F 27.7 °F 30.2 °F 81% 30.04 in 6.2 mi NE 11.2 mph - N/A   Overcast
3:30 PM 35.6 °F 27.7 °F 30.2 °F 81% 30.04 in 6.2 mi NE 11.2 mph - N/A Snow Light Snow
4:00 PM 33.8 °F 25.4 °F 30.2 °F 87% 30.04 in 3.1 mi NE 11.2 mph - N/A Snow Light Snow
4:30 PM 33.8 °F 26.5 °F 30.2 °F 87% 30.06 in 3.1 mi NE 8.9 mph - N/A Snow Light Snow
5:00 PM 33 °F - 29 °F 81% 30.10 in 3 mi NE 8.9 mph - - Snow Light Snow
5:00 PM 33.8 °F 26.5 °F 30.2 °F 87% 30.06 in 3.1 mi NE 8.9 mph - N/A Snow Light Snow
5:30 PM 32.0 °F 24.3 °F 32.0 °F 100% 30.06 in 2.8 mi NNE 8.9 mph - N/A Snow Light Snow
5:38 PM 32.0 °F 23.2 °F 32.0 °F 100% 30.06 in 2.8 mi NNE 11.2 mph - N/A Snow Light Snow
6:00 PM 32.0 °F 24.3 °F 32.0 °F 100% 30.06 in - NNE 8.9 mph - N/A Snow Light Snow Grains
6:03 PM 32.0 °F 24.3 °F 32.0 °F 100% 30.06 in - NNE 8.9 mph - N/A Snow Light Snow Grains
6:30 PM 32.0 °F 24.3 °F 30.2 °F 93% 30.06 in - NNE 8.9 mph - N/A Snow Light Snow Grains
7:00 PM 32.0 °F 24.3 °F 30.2 °F 93% 30.06 in 2.5 mi NE 8.9 mph - N/A Snow Light Snow Grains
7:30 PM 30.2 °F 22.1 °F 30.2 °F 100% 30.09 in - NE 8.9 mph - N/A   Overcast
8:00 PM 31 °F - 30 °F 94% 30.14 in 2 mi NE 8.9 mph - - Rain Light Freezing Rain
8:00 PM 32.0 °F 24.3 °F 30.2 °F 93% 30.09 in - NE 8.9 mph - N/A   Overcast
8:30 PM 30.2 °F 22.1 °F 28.4 °F 93% 30.09 in - NE 8.9 mph - N/A   Overcast
9:00 PM 30.2 °F 25.5 °F 28.4 °F 93% 30.09 in - Variable 4.5 mph - N/A   Overcast
9:30 PM 30.2 °F 23.5 °F 28.4 °F 93% 30.09 in - ENE 6.7 mph - N/A   Mostly Cloudy
10:00 PM 28.4 °F 21.4 °F 26.6 °F 93% 30.09 in - SE 6.7 mph - N/A   Scattered Clouds
10:30 PM 26.6 °F 19.2 °F 26.6 °F 100% 30.09 in - ESE 6.7 mph - N/A   Partly Cloudy
11:00 PM 27 °F - 25 °F 89% 30.14 in 2 mi SE 4.5 mph - -   Mist
11:00 PM 26.6 °F 19.2 °F 24.8 °F 93% 30.09 in - SE 6.7 mph - N/A   Partly Cloudy
11:30 PM 24.8 °F 19.2 °F 23.0 °F 93% 30.09 in - SSE 4.5 mph - N/A   Partly Cloudy